EW4052 Weather Reports


time (UTC)temp
C
wind
direction
speed
KPH
gust
KPH
rain 1hr
cm
rain 24hr
cm
rain mn
cm
humidity
%
barometer
mb
20260503214545 21 248 17.7 30.6 0.00 0.00 0.00 31 1005.4
20260503213043 21 280 16.1 33.8 0.00 0.00 0.00 36 1005.5
20260503211542 20 253 20.9 33.8 0.00 0.00 0.00 32 1005.5
20260503210050 21 259 19.3 35.4 0.00 0.00 0.00 35 1005.6
20260503204555 21 272 19.3 33.8 0.00 0.00 0.00 35 1005.7
20260503203038 21 255 19.3 33.8 0.00 0.00 0.00 34 1005.8
20260503201538 20 255 19.3 35.4 0.00 0.00 0.00 37 1005.9
20260503200043 20 265 19.3 33.8 0.00 0.00 0.00 35 1005.9
20260503194534 20 284 17.7 33.8 0.00 0.00 0.00 38 1006.0
20260503193034 21 269 25.7 38.6 0.00 0.00 0.00 35 1005.9
20260503191530 20 280 22.5 33.8 0.00 0.00 0.00 34 1006.0
20260503190042 20 280 25.7 37.0 0.00 0.00 0.00 35 1006.2
20260503184529 20 271 29.0 37.0 0.00 0.00 0.00 36 1006.1
20260503183025 20 284 16.1 35.4 0.00 0.00 0.00 39 1006.3
20260503181521 19 252 20.9 40.2 0.00 0.00 0.00 40 1006.4
20260503180021 20 264 25.7 35.4 0.00 0.00 0.00 41 1006.4
20260503174518 19 284 24.1 45.1 0.00 0.00 0.00 41 1006.6
20260503173016 19 284 22.5 32.2 0.00 0.00 0.00 42 1006.6
20260503171513 18 306 27.4 38.6 0.00 0.00 0.00 43 1006.5
20260503110119 8 13 0.0 0.0 0.00 0.00 0.00 65 1006.5
20260503090104 11 5 3.2 8.0 0.00 0.00 0.00 51 1008.7
20260503081559 11 199 0.0 4.8 0.00 0.00 0.00 51 1008.4
20260503071545 11 240 0.0 6.4 0.00 0.00 0.00 59 1010.6
20260503054539 12 146 0.0 12.9 0.00 0.00 0.00 47 1010.7
20260503053032 11 201 0.0 9.7 0.00 0.00 0.00 51 1010.7
20260503051530 11 290 0.0 6.4 0.00 0.00 0.00 48 1011.0
20260503050028 11 108 0.0 8.0 0.00 0.00 0.00 48 1011.3
20260503044538 11 212 0.0 8.0 0.00 0.00 0.00 46 1011.3
20260503043025 12 236 0.0 6.4 0.00 0.00 0.00 47 1011.3
20260503041524 12 155 0.0 8.0 0.00 0.00 0.00 47 1011.4
20260503040022 12 147 0.0 3.2 0.00 0.00 0.00 47 1011.7
20260503034522 12 232 0.0 4.8 0.00 0.00 0.00 47 1011.9
20260503033018 12 279 0.0 4.8 0.00 0.00 0.00 47 1012.0
20260503031517 12 121 0.0 9.7 0.00 0.00 0.00 48 1012.2
20260503030017 12 227 0.0 0.0 0.00 0.00 0.00 49 1012.4
20260503024513 12 229 0.0 0.0 0.00 0.00 0.00 49 1012.6
20260503023011 12 232 0.0 0.0 0.00 0.00 0.00 48 1012.7
20260503021511 12 234 0.0 0.0 0.00 0.00 0.00 48 1012.8
20260503020011 12 234 0.0 0.0 0.00 0.00 0.00 47 1012.9
20260503014513 12 234 0.0 0.0 0.00 0.00 0.00 48 1012.8
20260503013017 13 234 0.0 0.0 0.00 0.00 0.00 45 1012.8
20260503011508 14 234 0.0 0.0 0.00 0.00 0.00 41 1012.7
20260503010008 15 234 0.0 4.8 0.00 0.00 0.00 39 1012.8
20260503004508 15 238 0.0 6.4 0.00 0.00 0.00 36 1012.8
20260503003005 16 244 0.0 11.3 0.00 0.00 0.00 34 1012.9
20260503001504 16 244 0.0 8.0 0.00 0.00 0.00 33 1013.1
20260503000003 17 237 6.4 17.7 0.00 0.00 0.00 32 1013.3
20260502234502 17 223 3.2 19.3 0.00 0.00 0.00 30 1013.5
20260502233108 17 237 3.2 16.1 0.00 0.00 0.00 32 1013.5
20260502231618 17 257 3.2 12.9 0.00 0.00 0.00 30 1013.6
20260502230058 17 225 12.9 19.3 0.00 0.00 0.00 32 1013.9
20260502224600 17 238 1.6 14.5 0.00 0.00 0.00 34 1014.0
20260502223053 17 230 8.0 24.1 0.00 0.00 0.00 31 1014.2
20260502221554 17 240 6.4 19.3 0.00 0.00 0.00 34 1014.2
20260502220051 17 242 0.0 16.1 0.00 0.00 0.00 30 1014.5